Location: Wells
(51.2093°N, 2.6446°W)
Time: 18:32:30
(UTC+00:00)

JY1SAT - Visible Passes

Search period start: 07 March 2026 00:00
Search period end: 17 March 2026 00:00
Orbit: 472 x 478 km, 97.4° (Epoch: 7 March)

Date Brightness Start Highest point End Pass type
(mag) Time Alt. Az. Time Alt. Az. Time Alt. Az.
7 Mar ? 20:48:06 17° N 20:48:06 17° N 20:49:01 10° N visible
8 Mar ? 20:20:27 16° NNE 20:20:27 16° NNE 20:21:24 10° N visible
8 Mar ? 21:54:36 11° NW 21:54:36 11° NW 21:54:46 10° NNW visible
9 Mar ? 19:52:44 12° NE 19:52:44 12° NE 19:53:19 10° NNE visible
9 Mar ? 21:26:53 16° NNW 21:26:53 16° NNW 21:27:42 10° NNW visible
10 Mar ? 20:59:07 20° N 20:59:07 20° N 21:00:20 10° N visible
11 Mar ? 20:31:19 19° NNE 20:31:19 19° NNE 20:32:40 10° N visible
11 Mar ? 22:05:28 11° NW 22:05:28 11° NW 22:05:40 10° NW visible
12 Mar ? 20:03:28 15° NE 20:03:28 15° NE 20:04:39 10° NNE visible
12 Mar ? 21:37:36 17° NNW 21:37:36 17° NNW 21:38:36 10° NNW visible
13 Mar ? 21:09:42 23° NNW 21:09:42 23° NNW 21:11:10 10° NNW visible
14 Mar ? 20:41:45 24° NNE 20:41:45 24° NNE 20:43:27 10° N visible
14 Mar ? 22:15:53 11° NW 22:15:53 11° NW 22:16:00 10° NW visible
15 Mar ? 20:13:45 19° NE 20:13:45 19° NE 20:15:25 10° NNE visible
15 Mar ? 21:47:53 18° NW 21:47:53 18° NW 21:48:59 10° NNW visible
16 Mar ? 19:45:42 12° NE 19:45:42 12° NE 19:46:46 10° NNE visible
16 Mar ? 21:19:51 26° NNW 21:19:51 26° NNW 21:21:31 10° NNW visible
